sat.trackr.live / text

‹ back to catalog

STARLINK-30811

NORAD 58167 · 2023-166T

PAYLOAD ACTIVE UNKNOWN

§ Identity

Operator
Country
US
Launch date
2023-10-29
Launch site
AFWTR
Launch vehicle
Mass (kg)
RCS (m²)

Purposes: comms

External: N2YO · Heavens-Above · Gunter

§ Orbital elements

Epoch: 2026-09-20T14:02:51.933120Z

Period
94.01 min
Inclination
53.1592°
Eccentricity
0.0000802
Mean motion
15.31712033 rev/d
Perigee alt
470.2 km
Apogee alt
471.3 km
Semi-major
6,848.8 km
B*
2.0606e-5
RAAN
32.5749°
Arg perigee
70.8423°
Mean anomaly
289.2665°
Rev number
16,289

§ Raw data

STARLINK-308111 58167U 23166T   26263.58532330  .00000275  00000+0  20606-4 0  99942 58167  53.1592  32.5749 0000802  70.8423 289.2665 15.31712033162898

JSON: /api/v1/satellites/58167 · /tle

For live sub-satellite position, see the globe view (requires WebGL).

§ Visibility from observer

Set your observer location to see the next 7 days of passes ≥ 10°. The values pass through the URL so the page stays shareable.

No JS? Fill the form by hand. The geolocation button needs JavaScript.